Wind_Speed
37 38 38 38 37 37 36 36 35 34 33 32 32 32 30 30 31 31 30 28 26 24 22 22 23 23 24 26 27 27 26 25 26 25 25 24 24 23 22 20 20 20 20 19 18 16 17 18 20 19 18 19 19 19 20 21 22 22 22 21 21 21 20 20 23 27 27 27 28 29 30 29 29 29 29 28 25 21 18 17 16 17 18 19 21
38 38 37 37 37 36 36 35 34 33 33 33 33 33 31 31 30 29 27 26 25 26 26 24 23 23 24 24 26 27 28 27 26 26 26 25 24 23 22 22 22 22 21 21 20 19 20 20 19 20 20 19 19 20 20 21 22 23 24 24 24 23 22 22 23 26 29 30 30 30 29 29 29 29 30 31 31 29 27 22 19 17 17 17 19
38 38 38 37 37 37 36 35 35 34 33 34 33 32 31 30 28 27 27 28 28 28 27 25 24 23 23 24 25 27 28 28 26 25 25 25 24 24 23 23 24 23 23 23 22 21 21 20 20 20 21 22 22 22 22 22 22 23 24 25 26 26 25 24 24 27 29 30 30 30 30 30 29 29 30 30 31 32 32 30 25 21 18 17 17
38 39 39 38 38 37 36 35 34 34 34 34 33 32 31 30 28 27 29 30 29 27 26 25 23 22 23 25 27 27 28 29 27 25 24 24 24 24 24 24 25 25 25 24 23 23 22 22 22 22 23 24 24 24 24 25 26 26 27 27 27 28 28 28 27 26 27 29 31 32 32 32 32 31 30 31 32 32 33 33 31 29 26 22 19
38 40 39 38 37 36 35 35 34 34 34 33 33 33 32 31 30 29 29 30 29 25 24 23 21 21 23 25 26 27 28 28 27 25 25 25 26 25 25 25 25 25 25 25 25 25 24 24 24 24 25 26 26 26 26 27 28 29 30 30 30 30 30 31 31 30 29 31 33 34 34 34 34 32 30 30 31 32 33 33 33 33 32 30 27
38 40 40 38 37 36 36 35 34 33 33 33 33 33 32 32 31 30 30 30 29 25 23 23 21 21 22 24 25 26 28 29 30 30 29 29 28 29 29 28 27 27 26 26 25 26 26 26 27 27 27 28 28 28 28 29 30 32 32 32 32 31 31 31 32 33 33 33 32 31 32 34 34 32 30 30 31 32 33 33 33 33 33 34 34
40 41 39 37 36 36 35 34 33 33 33 33 34 33 32 32 31 30 29 29 28 26 25 24 23 22 23 25 24 25 26 29 32 33 34 34 33 33 32 31 30 30 30 29 28 28 29 30 31 31 31 31 31 31 32 32 32 33 33 33 33 32 31 29 30 32 33 32 30 27 26 29 30 30 28 26 26 26 24 25 28 30 31 32 33
40 40 38 36 35 34 33 33 34 33 33 32 32 32 32 32 31 30 30 29 28 27 26 25 25 25 26 27 27 26 27 29 31 32 34 35 35 35 35 34 33 32 32 33 33 33 33 33 33 33 33 34 34 33 33 34 34 35 34 32 31 29 27 25 25 27 30 30 28 25 21 22 25 27 26 22 24 25 22 21 25 28 28 30 30
40 38 37 36 35 34 33 34 34 33 33 32 32 32 32 32 32 31 31 31 30 28 27 26 26 27 28 28 27 27 29 31 31 32 33 33 34 35 36 37 37 37 36 37 37 37 36 36 36 36 36 36 36 35 35 33 32 32 30 27 25 23 22 23 24 24 25 26 26 24 21 21 22 23 24 22 23 24 21 20 22 23 22 24 25
38 36 33 32 32 32 33 33 32 32 33 33 33 33 33 32 32 32 33 32 31 29 27 27 27 29 30 29 28 28 30 31 30 30 29 29 29 30 32 34 36 37 38 39 39 39 38 38 38 37 37 36 34 32 29 27 25 25 24 23 23 22 22 24 25 24 24 24 25 22 20 20 18 16 17 17 16 17 17 16 17 17 16 19 21
37 35 33 32 32 31 31 31 31 30 30 31 32 32 31 30 30 30 31 30 28 27 27 27 28 30 30 29 29 29 30 30 29 28 26 24 23 24 26 29 30 31 32 33 34 33 33 33 32 31 30 28 27 25 23 22 22 22 22 23 23 24 24 25 26 27 26 26 26 24 23 25 24 21 20 20 20 21 20 20 20 20 19 21 23
35 34 33 34 33 31 30 29 29 29 29 30 31 31 29 28 28 29 28 27 26 26 26 27 29 30 29 29 30 30 30 30 30 28 25 22 22 22 24 25 26 27 28 28 28 28 27 27 27 25 24 23 22 21 21 21 22 22 23 23 23 23 24 25 27 28 28 28 29 29 29 29 27 24 21 20 20 21 21 21 22 22 21 22 23
33 32 31 31 30 29 28 28 29 29 29 31 32 31 29 28 28 29 29 27 26 26 26 28 30 30 30 30 31 32 32 32 30 27 24 22 22 22 24 25 26 27 28 28 27 26 26 25 25 24 24 23 23 23 23 23 24 24 25 24 25 25 25 26 27 27 28 29 31 32 32 30 29 28 24 21 19 20 22 22 21 21 21 22 24
33 33 30 28 26 26 26 27 27 28 30 33 33 31 29 29 29 30 29 28 27 27 29 30 30 31 31 31 32 33 33 32 29 26 23 21 21 21 23 24 26 27 28 28 28 27 26 25 25 25 24 25 26 27 27 26 26 27 27 27 28 28 27 27 27 28 29 31 32 35 34 32 32 32 30 27 26 28 29 28 25 24 25 26 27
35 32 27 25 24 25 26 27 28 30 33 33 32 29 28 28 29 29 29 28 28 28 28 29 30 30 30 31 32 33 32 30 28 25 21 20 20 20 21 22 23 25 25 26 26 27 27 27 27 28 28 28 28 27 27 26 25 26 28 29 29 29 30 31 31 32 34 35 37 39 39 39 39 39 38 36 35 36 35 33 31 30 31 32 33
35 29 24 23 24 25 27 30 31 33 34 33 30 28 28 27 28 28 28 27 27 27 28 29 30 30 30 30 31 32 31 29 26 23 21 20 20 20 21 23 25 26 28 28 29 29 29 29 30 31 31 31 30 28 27 26 27 29 30 31 32 33 34 34 34 35 37 37 39 40 41 40 40 39 36 33 31 29 27 27 28 27 31 35 37
30 26 25 26 28 28 29 31 32 32 33 32 31 29 28 27 26 27 27 27 29 30 31 30 30 29 29 29 30 31 31 29 26 23 20 19 19 20 22 24 26 27 28 28 28 28 28 29 29 29 30 30 29 28 26 25 27 29 29 29 30 31 32 31 30 30 30 31 32 33 33 33 32 31 29 27 27 25 24 27 29 28 29 33 36
27 28 30 30 29 28 28 30 32 33 32 31 30 28 26 25 25 26 27 29 30 30 30 30 29 29 28 28 28 28 28 27 25 24 21 18 18 19 21 23 24 25 25 25 25 25 25 25 24 24 26 26 25 24 23 23 25 26 26 26 27 28 29 27 26 24 22 23 24 25 26 27 27 28 28 28 28 27 27 30 30 29 30 33 36
31 32 31 28 26 27 31 34 35 33 29 27 25 23 23 24 26 28 29 30 30 29 28 28 28 27 26 26 26 25 25 26 25 25 23 21 19 19 21 22 23 24 24 24 24 24 24 24 23 23 23 23 23 22 21 21 23 25 25 26 28 29 27 24 23 22 21 21 21 21 22 23 23 25 26 27 28 30 32 33 31 29 29 31 33
32 29 26 25 27 31 33 32 30 27 24 22 21 23 25 26 27 28 29 29 28 28 27 27 27 27 26 26 26 25 26 27 27 27 25 22 19 19 21 22 23 24 24 24 24 24 23 23 23 22 22 21 21 21 21 22 24 25 26 28 30 30 28 25 23 21 21 23 23 23 24 23 22 21 22 22 23 25 30 35 37 37 36 35 34
28 26 26 29 31 28 23 20 19 19 20 22 25 26 26 26 27 28 28 28 28 28 28 28 28 28 28 27 27 27 28 28 28 26 24 20 18 19 21 23 23 24 25 25 26 26 25 25 24 23 22 21 21 21 21 22 22 24 26 28 30 29 27 26 24 23 25 27 28 29 30 29 27 24 22 22 21 20 21 25 31 36 41 44 43
27 27 29 29 25 20 17 17 19 22 24 26 26 26 26 25 27 27 27 27 28 28 29 28 28 28 28 27 27 26 26 25 24 22 20 18 17 17 19 21 21 22 24 25 26 26 25 24 23 22 21 21 20 21 21 21 22 23 24 25 26 25 24 25 26 26 26 26 27 30 32 32 30 28 25 24 22 21 20 19 18 21 27 33 38
30 29 27 25 24 23 24 26 28 29 29 27 26 26 26 25 26 26 26 27 28 28 28 27 26 26 25 23 21 20 19 18 18 17 17 17 17 16 17 18 19 19 21 24 25 25 24 24 23 23 21 21 21 22 22 22 22 23 23 23 24 23 23 25 26 26 26 27 28 29 30 30 29 28 26 25 23 21 21 20 17 17 18 20 23
28 28 27 28 29 31 32 32 32 31 29 26 25 25 25 24 24 25 25 25 25 26 26 25 23 22 21 19 17 16 16 17 17 17 18 18 18 18 18 18 19 19 20 22 23 24 24 24 23 23 22 22 22 22 22 22 22 23 23 23 23 24 24 26 26 26 27 28 27 25 25 26 26 26 25 22 20 20 20 19 19 20 21 22 23
28 30 30 30 30 30 31 31 29 27 24 24 24 23 23 24 24 24 23 22 22 23 22 20 19 18 18 17 17 17 17 18 18 19 19 19 19 18 16 16 16 17 19 21 23 24 24 23 22 23 23 23 24 24 24 25 25 24 24 24 25 25 25 25 25 26 27 27 24 22 22 23 23 22 21 20 20 20 21 21 21 22 23 25 27
31 32 30 29 29 29 27 26 24 22 22 22 22 22 22 22 22 21 20 20 20 20 18 17 16 16 17 17 18 18 19 19 19 19 19 18 15 13 12 12 12 13 15 17 18 20 21 20 19 20 21 21 21 22 23 24 25 24 23 22 23 25 25 25 26 27 27 24 22 21 21 19 19 20 21 21 23 24 24 24 24 25 25 27 28
32 30 28 29 29 26 23 21 20 21 21 22 21 21 21 20 20 19 18 18 17 17 16 16 16 16 18 18 19 20 21 21 21 19 17 15 13 11 11 13 13 12 12 12 12 13 15 16 16 16 17 18 19 19 21 22 22 23 22 22 24 24 23 22 22 22 22 21 21 21 21 21 21 21 22 22 23 23 23 23 23 24 24 25 28
30 29 29 29 27 23 20 20 20 21 21 20 19 18 18 18 18 18 17 16 15 15 15 16 17 18 19 21 22 23 23 23 21 19 16 15 15 14 14 16 17 17 17 16 13 11 14 17 19 19 19 19 19 20 22 23 23 24 23 22 22 19 16 16 18 19 19 20 21 22 22 21 22 22 22 23 23 22 21 22 22 22 22 22 26
30 30 29 28 25 20 19 19 19 19 19 18 18 19 18 18 18 18 17 16 16 17 18 18 19 20 21 22 23 23 24 24 22 20 18 17 17 17 18 19 21 21 21 18 15 15 18 21 22 23 23 21 20 21 22 22 22 21 18 16 15 14 14 16 19 19 20 20 21 21 21 21 21 22 22 23 24 23 22 22 23 22 21 21 24
30 30 29 27 22 18 19 20 19 19 19 19 20 20 17 15 14 15 15 15 15 16 16 17 18 19 21 22 23 23 24 24 23 21 20 20 20 21 21 22 22 22 21 19 19 20 23 24 23 23 22 22 22 21 20 19 19 16 13 12 13 13 14 15 16 17 17 19 20 21 22 23 23 24 25 26 26 24 23 23 23 22 22 22 24
30 29 27 24 21 18 19 20 19 20 21 20 19 18 17 15 14 13 12 12 12 13 14 16 18 19 20 22 23 23 23 24 24 24 23 21 20 21 21 21 20 19 18 17 19 21 23 23 23 22 20 20 20 19 18 19 19 16 14 15 15 15 15 15 15 15 16 18 20 21 22 24 25 25 26 26 25 24 24 23 23 23 23 24 25
27 26 24 23 21 19 18 18 18 19 19 18 17 16 17 17 16 16 14 13 13 14 17 19 21 21 21 21 22 22 23 23 24 24 21 19 19 19 20 21 21 19 17 17 19 22 23 23 25 24 23 22 22 20 18 19 20 18 17 17 17 17 17 16 15 16 17 18 19 21 22 23 24 24 24 24 25 25 25 24 24 24 25 26 27
24 23 23 22 21 20 19 18 18 18 18 17 16 15 15 16 17 18 18 18 19 21 23 24 24 23 23 22 21 20 21 21 21 21 20 20 20 21 22 23 22 20 18 18 20 23 24 24 24 22 21 21 20 19 18 19 21 21 19 19 19 18 17 16 16 17 18 18 19 19 20 21 21 21 22 23 24 25 26 24 23 24 26 27 29
22 23 23 23 22 22 21 20 19 18 17 17 16 15 16 17 18 19 21 23 24 26 27 27 27 25 24 21 18 18 18 18 19 20 21 22 22 21 21 21 21 20 18 19 21 23 23 23 22 19 18 18 17 18 20 20 20 20 19 18 18 17 16 16 17 19 20 19 18 18 18 19 19 20 21 21 22 23 24 23 23 25 26 27 29
23 24 25 25 24 23 22 21 20 18 16 16 16 17 18 19 19 21 22 23 25 27 29 30 29 25 21 18 16 16 17 17 17 18 19 20 21 20 20 20 20 19 17 17 18 18 18 19 19 18 18 17 16 15 17 18 17 16 16 16 16 17 17 17 18 20 20 19 18 17 18 18 18 18 19 20 21 21 22 22 23 24 25 27 29
27 28 28 26 23 21 20 20 20 18 16 17 18 19 20 21 21 22 22 23 25 29 30 29 27 24 20 16 15 15 15 15 17 18 18 16 15 16 17 17 17 15 13 11 12 14 15 16 16 16 18 20 18 13 11 12 12 13 14 15 16 17 17 18 19 20 19 18 17 18 18 18 17 17 18 19 19 20 20 21 22 23 24 26 28
29 27 25 22 21 20 20 18 17 18 18 19 20 21 21 22 22 22 23 25 27 28 28 27 25 22 19 17 15 14 15 17 19 19 15 11 9 9 11 12 12 12 11 11 12 15 17 17 16 16 18 20 19 15 11 10 11 12 13 15 17 18 19 19 19 19 17 16 17 17 17 17 16 16 16 16 16 17 18 19 21 22 23 23 24
26 23 20 19 19 19 18 16 15 17 18 19 20 21 21 21 22 23 24 26 27 26 26 25 23 20 18 17 16 17 19 21 20 17 12 9 9 9 10 9 9 10 11 11 13 15 17 18 18 18 18 19 19 18 16 14 13 14 14 16 19 20 20 20 19 17 16 15 16 16 16 15 14 14 14 14 14 15 17 18 18 18 19 20 21
24 20 18 18 18 18 18 17 16 17 19 20 22 22 21 22 23 24 26 26 25 24 23 23 20 18 17 17 18 19 21 21 19 17 13 9 9 10 11 12 12 11 10 11 12 14 15 16 16 16 17 18 19 20 21 21 20 19 19 19 21 21 20 19 18 16 14 14 14 15 14 13 12 12 11 12 13 14 14 13 13 14 16 17 17
25 21 19 18 18 19 20 20 20 21 22 22 22 22 22 23 24 25 25 24 23 22 22 21 19 17 17 18 19 18 18 19 20 18 14 10 8 8 10 11 11 11 11 11 12 13 14 15 14 13 13 14 14 16 18 20 20 20 19 20 20 19 18 17 16 15 14 14 14 14 13 11 11 10 10 11 12 11 9 8 9 12 13 13 13
27 25 23 22 22 21 21 21 22 22 22 22 22 23 23 23 23 22 22 22 22 22 21 19 18 17 18 18 16 13 15 19 19 16 12 10 9 8 7 7 8 9 10 10 11 12 13 14 14 13 13 13 12 13 14 14 15 16 17 18 17 16 15 16 15 14 14 15 14 13 12 10 9 8 8 9 8 6 5 5 7 10 11 10 10
25 24 24 24 23 22 21 21 21 22 22 22 22 22 22 21 21 21 22 22 22 21 19 17 18 18 18 16 13 12 15 17 16 12 10 10 10 8 7 7 7 8 9 10 10 12 13 13 13 13 13 13 13 13 13 13 13 14 15 15 15 15 15 15 15 15 15 15 13 12 11 10 8 7 6 6 5 3 2 3 5 7 7 7 7
23 23 22 20 19 18 20 21 22 21 21 21 20 21 21 22 22 22 21 20 18 17 17 18 18 18 16 14 13 14 16 15 13 11 11 11 10 9 8 8 8 9 10 11 12 12 12 11 11 11 11 12 13 13 13 14 13 13 13 14 14 15 15 16 16 15 14 14 13 11 11 10 8 6 5 4 3 2 1 1 3 5 5 5 4
24 23 20 17 16 18 20 20 20 19 19 20 20 21 22 22 21 20 18 17 16 16 17 18 18 16 15 14 14 15 16 14 13 13 12 10 10 9 9 9 9 9 10 10 10 10 11 10 9 9 10 10 11 12 13 14 14 14 14 14 15 16 16 15 14 13 13 13 12 11 10 10 9 7 6 4 4 3 2 1 2 3 3 3 3
24 21 18 17 18 18 19 18 17 17 18 20 20 21 21 20 19 18 16 16 17 17 18 18 17 15 15 15 15 15 15 14 14 13 11 10 10 9 9 9 9 9 9 8 8 9 9 8 8 8 8 9 9 10 11 13 14 15 15 15 15 15 15 13 12 11 11 12 11 10 10 10 10 9 7 6 5 5 4 3 2 2 2 2 2
23 19 18 19 19 19 19 18 18 18 18 19 19 19 19 19 17 16 16 16 17 18 18 17 16 15 14 15 15 15 15 14 14 13 11 10 9 8 8 8 9 8 8 7 7 7 7 6 7 7 7 7 8 9 10 11 13 14 15 15 15 14 13 12 11 10 10 10 10 10 10 10 10 9 9 8 7 6 6 5 3 3 2 3 2
21 19 19 20 20 20 20 19 18 18 18 17 17 18 18 17 16 16 16 16 16 16 16 15 15 14 14 14 14 14 14 14 13 13 12 9 7 7 8 8 8 7 7 7 7 6 6 5 5 5 6 6 7 8 9 9 10 12 12 12 12 12 12 11 10 9 9 9 10 10 9 9 10 10 10 9 8 7 6 5 5 4 4 4 3
21 20 20 20 20 20 20 19 18 17 17 17 17 17 17 17 17 17 16 15 14 14 14 14 15 14 14 14 14 14 14 13 13 13 11 9 7 8 8 7 7 7 6 6 5 5 5 5 4 5 5 6 7 8 9 8 9 9 9 10 10 11 11 11 9 8 8 9 9 9 9 9 9 10 11 10 9 7 6 6 6 5 5 4 3
22 21 21 20 20 20 19 17 17 16 16 16 16 16 17 17 17 16 15 14 14 13 13 14 15 15 14 14 14 14 14 13 13 12 11 10 9 8 7 6 6 6 5 4 4 5 5 4 4 4 5 5 7 7 7 7 7 7 8 8 9 9 10 10 9 8 7 7 7 8 8 8 8 10 11 11 9 8 7 7 6 6 5 5 4
22 22 21 20 20 19 18 16 16 15 15 15 16 16 16 17 16 16 14 13 13 13 14 14 14 14 14 14 14 14 14 13 12 12 11 11 9 8 6 5 5 5 5 4 4 4 4 4 4 4 4 5 5 6 6 6 6 6 7 7 8 8 9 9 8 7 7 7 7 7 8 7 8 9 11 11 10 8 8 7 7 6 6 5 5
22 22 21 20 19 18 17 16 16 15 15 15 15 15 15 15 14 14 13 13 13 14 14 14 14 14 14 14 14 14 13 13 12 11 11 11 10 7 5 5 4 4 4 3 3 4 4 3 3 3 4 4 4 4 4 4 4 5 5 6 6 7 8 8 7 7 7 6 6 7 7 7 7 9 10 11 10 9 8 8 7 6 6 5 5
Wind_Direction
277 277 276 274 271 270 269 270 271 272 272 271 270 269 269 270 271 274 280 286 288 282 274 270 267 264 263 261 259 260 262 262 260 257 257 257 257 259 260 260 258 256 258 264 267 261 255 258 266 269 269 267 268 270 272 275 278 281 284 287 287 287 288 286 284 285 285 284 283 284 286 289 287 283 280 275 271 272 275 279 280 277 272 264 253
276 276 275 273 270 269 269 269 269 268 267 266 266 266 267 268 270 276 281 281 278 273 269 270 270 266 264 264 261 259 259 260 259 256 255 256 255 256 258 258 258 259 260 262 263 263 263 264 266 270 273 271 271 274 277 278 278 279 282 285 287 288 289 286 284 285 286 285 285 286 286 286 286 286 285 282 278 274 271 271 274 277 278 275 267
276 275 273 270 268 268 267 267 266 265 265 264 264 266 267 267 270 275 277 276 273 268 268 273 273 265 262 263 260 256 254 255 255 252 251 253 254 255 257 259 258 257 257 259 260 262 263 264 265 268 272 275 276 278 280 283 284 283 282 283 286 288 288 287 285 285 287 288 287 286 286 285 285 285 286 286 285 280 275 271 269 269 272 276 276
279 274 271 268 267 267 266 266 265 264 264 264 264 265 264 264 266 270 273 275 272 266 269 276 272 263 261 261 257 253 252 251 249 245 244 247 251 255 258 260 259 257 256 256 257 258 259 261 263 265 268 273 278 279 282 286 289 290 288 285 284 285 287 288 286 284 284 284 284 284 285 286 285 284 285 285 285 284 281 278 273 268 267 269 272
282 276 270 266 265 265 265 266 265 265 266 266 266 265 263 263 264 266 269 272 270 266 270 275 271 265 262 260 258 255 253 252 250 246 244 245 248 251 253 256 258 258 256 253 252 253 256 260 263 265 267 269 273 276 280 284 287 290 291 290 287 285 284 284 284 282 280 279 282 285 286 286 286 285 285 284 283 283 283 282 279 274 271 267 266
285 278 269 265 264 265 265 265 266 267 267 266 266 266 264 263 264 264 265 266 266 267 270 270 269 266 260 258 260 258 255 255 255 255 254 253 251 250 250 250 251 253 253 250 249 249 255 261 265 266 266 267 270 273 276 279 282 285 287 288 289 288 284 281 280 281 280 279 282 285 285 284 285 285 282 281 283 284 285 285 283 280 277 273 270
288 278 268 264 265 265 265 267 269 269 267 266 265 264 263 264 264 264 263 262 263 268 269 266 266 265 259 257 259 260 259 257 255 256 256 256 255 253 251 249 247 248 248 247 248 252 258 265 267 267 266 267 271 274 276 278 279 281 283 285 286 285 284 281 278 278 280 281 284 288 288 285 283 284 283 283 283 282 283 285 284 283 283 282 279
289 278 268 264 265 265 267 271 271 268 267 267 265 263 262 262 262 262 261 260 262 268 267 265 267 264 260 261 262 260 258 257 256 257 257 256 256 254 253 252 251 250 249 249 251 256 262 266 267 267 268 270 273 274 276 277 278 279 280 281 281 280 280 278 277 276 277 281 285 288 286 281 277 278 279 278 275 273 274 277 281 284 285 286 284
288 279 269 266 267 268 271 273 272 269 266 265 263 263 263 262 262 263 262 262 264 264 263 266 270 267 265 270 270 263 259 258 260 262 263 263 261 259 258 258 258 258 257 257 258 260 263 264 265 266 268 270 272 273 274 274 275 277 279 279 278 276 274 271 272 273 276 280 283 285 284 280 279 280 282 282 280 279 278 276 277 280 284 286 285
286 278 273 270 271 272 273 273 271 268 265 264 263 264 264 263 264 265 264 262 261 259 261 269 273 270 270 273 273 269 266 266 268 271 273 272 270 269 267 264 263 263 262 263 263 263 264 264 265 266 266 268 270 271 271 270 268 270 272 273 273 273 271 270 271 274 276 278 279 280 280 276 271 270 273 275 273 269 264 260 262 267 272 274 273
285 278 275 275 275 276 276 274 270 266 265 266 267 266 264 263 265 266 262 257 254 256 263 272 275 274 274 275 276 275 274 274 277 279 280 277 274 273 272 271 269 267 265 265 265 266 267 267 268 269 269 270 270 267 265 263 261 262 263 264 267 268 268 269 272 275 276 276 275 273 270 268 267 267 266 266 264 260 256 255 259 264 269 271 271
287 283 279 277 277 276 275 273 270 268 268 270 269 267 264 262 264 265 261 253 251 256 264 271 275 275 275 276 276 276 276 279 281 281 280 277 273 271 270 270 271 271 269 268 267 268 270 270 271 271 272 274 273 269 265 263 261 261 261 259 258 260 261 263 266 269 271 274 275 272 271 271 273 274 272 270 270 268 264 261 262 266 270 271 272
290 288 284 281 278 274 271 270 270 270 271 271 269 266 263 261 262 263 260 253 251 258 266 270 271 272 273 275 275 275 276 280 281 281 280 277 273 271 267 263 263 263 264 264 265 266 267 268 270 269 267 265 262 260 259 260 261 262 260 258 256 257 258 258 259 261 264 269 271 271 271 271 271 270 266 263 264 264 262 260 260 264 264 262 262
291 288 285 281 277 274 271 270 272 274 276 274 269 264 262 261 261 261 258 254 254 261 267 268 268 269 272 275 274 273 276 279 281 282 283 280 275 271 266 262 260 260 261 262 263 263 263 263 263 262 259 258 259 260 262 264 264 263 261 261 261 260 258 256 255 255 255 256 259 262 264 264 265 267 267 266 268 268 267 266 265 265 261 257 256
294 288 281 276 274 274 275 276 279 281 279 275 269 262 260 261 262 261 257 255 258 264 267 267 268 271 275 275 273 273 275 278 281 283 284 281 276 272 269 267 264 262 261 261 260 259 259 258 257 256 256 258 259 261 263 265 266 265 264 264 264 263 261 259 259 259 258 256 256 258 260 261 264 268 271 273 274 274 273 272 271 270 266 262 257
294 286 280 279 282 283 283 284 284 282 280 275 266 260 259 260 260 258 255 257 263 268 269 268 269 272 275 274 273 273 276 278 280 281 281 279 275 270 265 261 259 256 255 256 256 256 256 256 257 258 259 261 262 262 262 263 263 264 264 263 262 262 261 260 260 261 261 260 259 261 264 267 270 273 275 276 276 276 275 275 274 272 269 269 266
292 288 290 293 294 291 288 286 285 284 282 275 264 258 259 261 260 259 261 267 273 273 270 269 271 274 274 272 270 271 274 277 279 279 280 278 273 267 263 261 260 260 260 261 262 262 260 260 260 261 262 263 264 265 265 263 263 266 268 267 267 266 266 266 264 262 261 262 262 264 267 269 272 274 273 271 271 274 273 270 271 271 268 269 272
298 299 298 296 292 289 286 287 287 285 279 269 260 258 261 263 266 269 274 277 275 272 271 272 274 276 273 270 269 270 273 277 279 282 285 284 276 269 267 266 266 266 266 266 265 264 264 264 264 265 267 269 270 270 269 265 263 265 267 268 268 268 268 271 273 273 273 272 270 268 267 267 268 267 264 259 257 256 256 258 260 262 262 265 269
305 302 295 289 286 288 291 291 287 279 268 259 256 262 270 275 278 279 279 277 274 271 272 274 276 276 274 271 270 269 270 273 277 283 289 288 279 271 270 270 270 271 270 269 268 266 266 266 266 265 268 271 273 273 270 264 263 266 269 270 270 271 274 278 280 282 282 281 279 277 274 271 269 265 260 254 249 245 244 248 251 254 257 260 264
301 295 290 290 294 296 294 287 277 266 258 259 268 280 287 289 286 281 277 274 272 271 273 274 274 272 270 269 268 267 268 271 276 283 289 288 280 273 272 271 271 272 272 270 270 269 268 269 270 269 269 268 268 267 264 260 261 265 268 270 272 276 282 285 285 286 287 288 290 291 289 287 284 278 273 269 263 254 246 244 246 249 252 255 258
294 288 290 298 301 295 284 272 265 264 271 280 286 291 293 289 282 276 272 271 272 275 277 277 275 271 270 270 270 270 271 274 279 284 286 284 278 272 269 268 268 269 269 267 266 266 266 268 269 270 270 268 264 264 264 262 260 261 262 264 267 271 275 278 282 286 286 287 289 289 288 289 288 287 285 285 284 279 268 255 248 246 247 249 252
300 298 299 300 293 279 270 274 281 287 294 296 293 291 289 283 276 272 272 274 277 280 280 279 277 275 275 276 276 275 276 278 283 286 287 285 280 271 267 267 267 268 268 268 269 270 271 272 272 272 270 266 264 264 265 265 264 263 261 262 264 266 267 270 275 276 276 277 282 283 282 281 281 283 285 285 286 289 289 283 270 258 253 251 252
305 306 304 296 286 283 287 292 294 297 301 299 291 287 285 280 276 275 276 279 280 280 280 280 280 280 281 282 281 282 286 288 291 292 293 292 289 281 274 272 270 268 266 267 270 272 273 272 272 271 268 265 264 265 265 265 266 266 266 266 266 265 266 267 267 267 268 271 278 282 279 273 272 276 279 280 283 287 288 288 285 278 271 269 268
301 302 301 295 291 292 294 295 297 300 299 292 286 284 284 283 281 281 281 280 278 277 279 280 281 281 283 285 286 288 289 289 289 289 287 286 286 283 280 276 272 268 264 262 263 266 268 269 270 269 267 266 266 267 268 268 267 267 267 265 263 262 264 266 266 267 270 272 276 282 280 270 267 271 276 277 281 284 283 281 279 277 275 275 277
298 303 305 303 301 300 299 299 299 297 289 285 285 285 285 284 283 283 282 279 276 276 278 279 278 276 276 278 279 279 279 280 282 283 283 283 284 284 281 276 270 266 262 257 254 255 259 265 268 267 266 266 266 266 265 264 263 263 263 262 260 260 262 266 268 271 274 274 275 279 279 271 266 268 270 271 271 272 273 273 272 271 272 273 273
303 308 311 310 309 307 304 301 297 289 283 284 288 287 285 284 283 281 279 275 273 273 273 273 272 271 270 271 273 275 279 282 285 286 287 290 293 294 292 288 281 276 271 266 263 262 264 269 273 273 271 270 268 266 266 265 263 263 264 263 262 260 261 265 269 274 276 276 272 271 271 268 265 264 262 261 262 263 265 269 270 269 269 271 273
307 311 313 313 313 311 305 298 291 286 285 288 288 284 281 281 280 278 275 273 272 269 265 263 262 262 266 270 275 280 283 284 286 287 288 288 286 281 277 271 264 260 256 255 260 268 271 272 274 277 277 275 271 268 267 265 263 264 265 265 265 266 267 268 271 272 272 269 264 262 263 263 263 263 262 262 264 266 267 270 273 274 271 267 269
310 313 315 317 316 312 303 296 292 287 285 286 285 279 275 274 272 271 270 268 265 260 257 257 260 266 275 281 285 286 286 285 284 283 279 278 278 276 271 264 258 254 250 248 250 261 271 270 264 261 263 264 261 259 258 257 260 264 268 268 268 269 267 262 261 260 260 262 265 268 270 271 272 273 273 273 274 276 276 276 278 282 280 270 262
313 316 317 318 318 311 299 295 292 286 281 280 280 279 278 274 269 266 262 258 258 261 265 270 277 286 292 293 291 289 287 286 285 280 275 276 280 281 278 275 271 268 265 264 268 276 281 279 271 262 260 259 259 260 262 263 265 269 270 268 265 261 255 253 254 256 258 265 270 273 274 274 274 275 275 276 278 279 280 280 281 284 285 277 266
315 317 318 318 315 304 293 291 289 284 280 282 283 283 280 273 267 267 268 267 268 272 276 280 288 295 296 294 291 287 285 286 285 281 278 278 277 277 278 279 280 280 279 280 280 278 277 276 272 267 264 263 263 263 265 267 270 271 269 265 260 255 251 250 253 259 266 271 273 274 273 272 271 271 271 272 275 277 277 277 278 280 281 277 272
315 316 317 315 310 301 294 292 288 284 284 285 283 277 273 269 263 263 270 275 276 277 279 284 291 293 293 292 290 287 285 284 282 280 279 279 279 280 279 278 278 277 277 275 273 270 268 266 265 264 262 261 260 257 258 264 267 262 256 254 251 246 245 249 258 269 278 281 281 279 278 275 273 273 272 272 273 273 273 273 275 277 279 278 276
314 314 314 313 311 309 303 297 291 288 288 289 283 272 267 268 267 267 270 273 275 283 290 296 299 298 295 293 290 287 286 284 282 282 282 282 280 275 268 264 263 264 265 263 260 259 260 261 263 263 260 258 255 249 248 257 260 253 246 247 246 244 247 257 272 284 290 290 288 285 282 279 277 276 274 273 272 270 270 270 271 275 279 279 280
314 313 314 314 313 311 306 300 295 290 288 286 279 267 260 262 269 276 281 285 289 295 301 304 305 303 300 297 293 287 282 278 277 277 276 273 269 265 262 261 262 264 266 262 258 257 258 262 267 270 270 270 261 246 243 255 257 248 243 244 243 245 253 267 283 295 299 296 291 286 283 282 280 278 275 272 270 270 270 270 271 275 278 280 281
312 312 313 315 314 312 310 307 303 297 288 277 267 260 260 266 273 282 290 296 301 304 307 309 309 308 306 303 298 290 287 285 281 276 272 270 270 271 272 271 268 267 265 261 259 259 260 262 263 260 261 271 269 254 252 260 254 239 235 239 242 248 261 276 290 300 303 301 296 291 289 286 283 281 279 276 273 272 272 271 272 275 278 281 284
312 311 312 313 312 309 307 306 304 299 284 269 262 261 267 274 281 289 296 301 304 306 309 310 311 311 309 302 294 293 295 295 291 286 281 280 279 278 278 276 273 271 269 262 258 260 265 269 267 253 247 261 270 263 258 258 247 233 233 239 244 253 266 282 296 303 304 300 297 294 292 289 285 283 281 278 275 273 272 271 274 277 281 284 285
314 314 314 313 312 308 303 300 297 287 273 265 266 270 276 282 290 297 300 301 303 306 308 309 310 312 309 301 296 296 294 291 293 295 294 293 293 290 284 281 278 275 270 258 251 253 258 265 266 256 250 257 262 255 243 238 233 231 236 241 247 258 272 286 297 300 298 295 295 295 293 290 288 285 281 277 275 274 273 275 278 282 285 286 286
318 319 318 315 311 306 303 299 289 278 272 272 275 280 285 291 296 299 300 301 303 305 304 305 307 309 307 304 301 297 290 291 300 305 300 293 291 285 277 276 279 276 268 255 247 247 247 246 245 244 245 248 250 245 235 229 229 233 240 247 255 265 276 287 294 294 291 290 293 293 291 291 292 289 283 278 276 275 277 281 285 290 293 294 291
317 322 320 315 309 305 305 302 288 276 275 279 284 289 294 295 296 298 299 300 302 301 300 302 305 305 304 301 298 294 295 300 309 313 302 277 257 245 238 240 247 253 255 253 250 248 248 246 246 245 244 244 246 245 241 237 237 241 248 258 266 272 279 286 289 286 284 287 291 291 290 291 294 291 282 277 276 278 282 288 295 300 302 300 296
315 320 316 311 309 308 308 306 296 287 286 290 294 297 297 295 295 298 299 299 298 297 299 302 303 301 298 295 295 299 303 307 314 320 317 294 263 246 239 235 233 235 240 244 246 247 248 249 249 251 250 249 249 250 249 250 253 256 259 264 269 273 278 281 281 280 280 284 291 292 291 293 296 292 280 275 279 284 289 297 308 310 305 300 297
310 311 306 303 303 305 305 304 301 299 299 299 299 298 295 294 295 296 297 296 296 297 300 301 299 295 292 293 298 304 305 306 313 321 321 310 289 272 257 246 242 242 242 243 245 247 249 249 248 249 249 247 246 248 251 252 252 253 255 257 260 264 268 271 274 277 279 283 289 291 288 290 296 292 280 279 285 290 295 309 320 314 305 302 301
307 305 300 297 297 300 301 299 298 299 299 298 296 294 292 293 294 294 295 296 296 298 300 298 294 291 292 297 302 301 295 299 309 317 317 310 305 296 278 258 249 248 249 251 253 254 252 248 245 244 245 243 241 241 243 243 238 236 240 247 250 254 258 263 269 275 276 278 285 286 281 283 292 293 283 281 286 292 301 322 327 321 313 309 303
314 310 304 301 301 302 301 297 295 295 295 294 292 290 290 291 292 293 295 297 297 298 297 294 292 295 299 303 302 293 293 301 310 313 307 301 299 294 284 270 258 251 248 249 251 254 255 253 248 247 248 250 248 244 241 238 233 230 234 242 247 250 256 262 268 271 272 274 279 280 273 270 280 291 287 280 282 298 318 328 334 337 338 336 319
321 317 313 310 306 301 296 293 292 294 294 292 287 284 286 289 292 295 298 299 298 296 293 293 296 301 306 306 300 297 302 310 313 308 300 294 291 287 280 271 263 254 250 249 250 254 259 260 256 253 252 254 255 251 243 236 232 232 236 243 248 253 259 264 266 267 268 270 273 273 265 258 263 276 279 271 275 287 296 324 342 349 358 7 5
321 319 316 311 304 296 291 290 291 291 290 286 284 285 289 293 296 299 301 300 296 293 292 295 300 305 306 306 305 306 310 314 312 309 304 295 289 285 280 275 273 268 264 262 259 257 258 259 258 255 254 257 259 255 244 236 234 235 239 245 251 256 261 263 263 263 264 266 267 265 257 249 250 256 257 252 259 264 249 248 320 338 351 9 18
322 320 317 312 307 303 299 296 292 287 283 283 285 288 291 293 296 297 295 292 290 291 293 297 301 303 305 307 309 310 313 313 313 314 309 295 286 285 283 279 278 278 276 273 266 258 256 257 256 257 259 260 259 253 243 236 235 238 241 247 253 259 263 261 256 254 257 261 262 259 252 245 243 243 240 237 245 254 253 253 273 295 305 318 321
325 322 316 311 309 307 304 301 297 292 289 289 290 290 291 294 295 294 289 286 287 290 295 300 302 303 306 309 310 312 315 317 318 319 313 300 291 289 284 278 277 280 284 282 272 259 251 248 251 257 262 259 251 244 238 235 237 241 247 250 255 259 260 253 246 247 253 257 258 255 249 243 240 237 230 225 230 240 246 250 256 266 278 286 282
326 321 313 310 308 306 306 305 302 298 295 294 293 292 294 295 295 294 293 292 291 292 297 301 304 305 308 311 312 314 317 319 321 322 317 308 295 285 278 276 278 282 285 283 272 256 241 237 246 256 259 254 244 238 236 237 239 244 248 251 252 253 251 245 240 242 248 252 254 255 250 243 238 232 224 218 218 225 232 239 246 256 266 271 270
327 323 318 315 313 312 312 310 305 300 298 296 294 293 292 292 293 296 298 298 296 296 298 301 304 306 308 309 311 314 317 319 321 322 319 311 294 280 275 276 280 284 286 283 270 250 234 230 242 252 255 251 244 240 239 240 241 242 243 245 245 246 243 240 235 235 241 248 253 255 249 241 234 229 222 216 213 215 222 229 239 251 260 259 254
328 326 324 323 321 321 320 317 312 306 301 297 294 292 291 292 294 297 298 297 295 293 292 294 299 302 304 304 307 312 314 316 318 321 320 314 300 286 277 273 278 285 289 281 259 237 224 228 245 255 258 254 250 246 243 241 239 239 238 239 240 241 239 235 230 229 237 246 250 250 245 236 227 222 218 212 207 209 216 223 231 242 247 248 245
327 326 325 325 324 324 325 323 320 317 310 303 298 295 294 293 295 296 296 294 290 286 286 291 295 297 298 300 303 306 309 313 315 318 320 318 310 294 278 267 272 282 285 273 246 224 216 230 251 259 259 257 253 247 242 238 235 234 233 233 235 235 234 230 227 229 235 241 243 243 238 228 218 214 212 206 202 204 210 215 223 233 239 243 242
325 324 324 324 324 325 325 324 323 322 317 312 308 304 301 301 300 299 295 290 284 282 284 287 288 289 292 296 299 300 304 309 312 313 317 321 318 302 274 257 266 277 275 261 235 215 216 240 262 263 259 256 250 241 235 228 221 220 223 226 227 229 229 226 225 228 231 234 236 233 226 214 206 204 202 199 198 201 206 210 217 225 232 235 233
Height
1457 1456 1455 1453 1452 1450 1448 1447 1446 1445 1443 1442 1441 1440 1440 1439 1438 1437 1436 1435 1435 1433 1433 1432 1432 1432 1432 1431 1431 1431 1432 1432 1432 1431 1431 1430 1430 1430 1430 1430 1430 1429 1429 1428 1428 1427 1427 1426 1426 1426 1426 1426 1426 1426 1426 1426 1425 1425 1425 1425 1425 1425 1425 1425 1422 1420 1420 1420 1420 1420 1420 1419 1418 1417 1417 1418 1420 1422 1422 1422 1422 1422 1423 1423 1424
1452 1451 1450 1448 1447 1446 1444 1443 1442 1441 1440 1438 1437 1436 1436 1435 1435 1434 1433 1432 1431 1430 1429 1429 1429 1429 1428 1428 1428 1427 1427 1428 1428 1428 1428 1427 1427 1427 1427 1427 1426 1426 1426 1426 1425 1425 1424 1424 1423 1423 1423 1423 1423 1423 1423 1423 1423 1422 1422 1422 1422 1422 1423 1422 1420 1417 1415 1416 1416 1417 1417 1417 1415 1414 1414 1415 1416 1418 1419 1420 1421 1420 1420 1421 1421
1448 1447 1445 1444 1442 1441 1440 1439 1438 1437 1436 1435 1434 1433 1432 1432 1432 1431 1430 1429 1428 1426 1426 1426 1425 1425 1425 1424 1423 1423 1423 1423 1423 1423 1423 1423 1424 1424 1424 1424 1423 1423 1423 1423 1422 1422 1421 1421 1421 1420 1420 1420 1420 1420 1420 1420 1420 1420 1420 1420 1419 1419 1419 1419 1417 1415 1412 1412 1413 1413 1413 1413 1412 1411 1412 1412 1413 1414 1415 1416 1418 1418 1418 1418 1419
1445 1442 1440 1439 1438 1437 1436 1435 1434 1433 1432 1431 1430 1430 1429 1428 1429 1428 1427 1425 1424 1423 1422 1422 1422 1421 1421 1420 1419 1419 1419 1419 1418 1418 1418 1419 1419 1420 1420 1420 1420 1419 1419 1419 1419 1419 1419 1418 1418 1418 1418 1417 1416 1416 1417 1417 1417 1417 1417 1417 1416 1415 1415 1414 1414 1412 1410 1409 1409 1410 1410 1409 1409 1408 1409 1409 1411 1412 1412 1413 1414 1414 1415 1416 1416
1441 1438 1436 1434 1433 1432 1432 1431 1430 1429 1428 1427 1426 1426 1425 1425 1425 1424 1423 1421 1420 1419 1419 1419 1418 1418 1417 1417 1416 1416 1415 1415 1415 1414 1414 1415 1415 1415 1416 1416 1416 1416 1415 1415 1415 1415 1415 1415 1415 1415 1415 1414 1414 1413 1413 1413 1413 1413 1413 1413 1413 1412 1412 1411 1410 1409 1408 1406 1405 1406 1407 1406 1405 1405 1406 1407 1408 1409 1410 1411 1411 1411 1411 1412 1414
1437 1434 1431 1429 1428 1427 1427 1427 1426 1425 1424 1423 1423 1422 1422 1421 1421 1420 1419 1418 1417 1416 1416 1415 1415 1415 1414 1413 1413 1412 1412 1412 1411 1411 1411 1411 1411 1411 1411 1412 1412 1411 1411 1411 1411 1411 1411 1411 1412 1412 1411 1411 1411 1411 1410 1410 1409 1409 1409 1409 1409 1409 1408 1407 1406 1405 1404 1403 1402 1402 1403 1402 1402 1402 1403 1405 1405 1406 1407 1407 1407 1407 1407 1408 1410
1432 1429 1426 1424 1423 1422 1422 1422 1422 1421 1420 1419 1419 1418 1418 1417 1417 1416 1415 1414 1413 1413 1412 1412 1412 1411 1411 1410 1409 1409 1409 1408 1407 1407 1407 1407 1407 1407 1407 1408 1407 1407 1407 1407 1407 1407 1407 1408 1408 1408 1408 1407 1407 1407 1407 1406 1406 1405 1405 1405 1405 1405 1404 1403 1403 1402 1400 1399 1398 1399 1399 1399 1398 1398 1400 1402 1403 1404 1405 1405 1404 1404 1404 1404 1405
1428 1425 1422 1420 1418 1418 1418 1418 1418 1417 1416 1415 1415 1414 1414 1413 1413 1412 1411 1410 1410 1410 1409 1408 1408 1408 1407 1406 1406 1406 1405 1404 1403 1403 1403 1403 1403 1403 1403 1403 1403 1403 1403 1403 1403 1403 1403 1403 1403 1403 1403 1403 1403 1403 1403 1402 1402 1401 1401 1401 1401 1400 1399 1399 1399 1398 1397 1395 1394 1395 1395 1396 1395 1395 1397 1399 1400 1401 1403 1404 1402 1401 1402 1402 1402
1423 1420 1417 1415 1414 1414 1414 1414 1413 1412 1412 1411 1411 1410 1410 1409 1408 1408 1407 1407 1406 1406 1405 1405 1404 1403 1403 1402 1402 1401 1401 1400 1400 1400 1399 1399 1399 1399 1399 1399 1398 1398 1398 1398 1398 1399 1399 1399 1399 1399 1399 1399 1399 1399 1398 1398 1397 1396 1396 1397 1397 1396 1396 1396 1395 1395 1394 1393 1392 1392 1392 1392 1393 1393 1394 1396 1398 1398 1400 1401 1399 1399 1399 1399 1399
1418 1415 1413 1411 1411 1410 1410 1409 1408 1408 1407 1407 1407 1406 1406 1405 1405 1404 1403 1403 1402 1402 1401 1401 1400 1400 1399 1398 1398 1397 1397 1396 1396 1396 1395 1395 1394 1394 1393 1393 1393 1393 1393 1393 1393 1393 1393 1393 1394 1394 1394 1394 1394 1394 1394 1394 1394 1393 1393 1394 1394 1394 1393 1393 1392 1392 1392 1391 1390 1390 1390 1390 1390 1392 1392 1394 1395 1396 1396 1397 1396 1395 1396 1396 1396
1414 1411 1409 1407 1406 1406 1405 1404 1404 1404 1404 1404 1403 1402 1402 1401 1401 1400 1399 1399 1398 1398 1397 1397 1396 1396 1395 1394 1393 1393 1392 1392 1392 1392 1392 1391 1391 1390 1389 1388 1388 1387 1387 1387 1387 1388 1388 1388 1388 1389 1389 1389 1390 1390 1391 1391 1391 1391 1391 1391 1391 1391 1391 1390 1390 1390 1390 1389 1388 1389 1389 1388 1389 1390 1390 1391 1392 1393 1393 1394 1392 1392 1392 1392 1392
1409 1407 1404 1403 1402 1402 1402 1401 1401 1401 1400 1400 1399 1399 1398 1397 1397 1396 1395 1395 1394 1394 1393 1393 1392 1392 1391 1390 1389 1389 1389 1388 1388 1388 1388 1387 1387 1387 1386 1385 1384 1384 1384 1383 1383 1383 1383 1384 1384 1384 1385 1386 1386 1387 1387 1387 1388 1388 1388 1389 1389 1389 1389 1388 1388 1388 1388 1387 1386 1386 1386 1387 1388 1389 1390 1390 1390 1390 1390 1390 1389 1389 1390 1390 1390
1405 1403 1401 1399 1398 1398 1398 1398 1397 1397 1397 1397 1396 1395 1394 1393 1393 1392 1392 1391 1391 1390 1390 1389 1389 1388 1388 1387 1386 1385 1385 1385 1385 1384 1384 1383 1383 1383 1382 1382 1381 1381 1380 1380 1380 1380 1380 1380 1381 1381 1382 1382 1383 1383 1384 1384 1384 1384 1385 1385 1385 1385 1385 1386 1386 1386 1386 1385 1383 1383 1383 1385 1385 1386 1387 1388 1388 1387 1386 1386 1386 1386 1386 1386 1387
1401 1399 1397 1396 1395 1395 1395 1394 1394 1394 1394 1393 1392 1391 1390 1389 1389 1388 1388 1387 1387 1386 1386 1385 1385 1385 1384 1383 1382 1381 1381 1381 1380 1380 1380 1379 1379 1379 1378 1377 1377 1377 1376 1376 1377 1377 1377 1377 1377 1377 1378 1379 1379 1380 1380 1380 1380 1380 1380 1380 1380 1380 1381 1381 1382 1382 1382 1382 1380 1379 1379 1381 1381 1381 1383 1385 1385 1383 1382 1382 1382 1382 1382 1382 1383
1398 1396 1394 1393 1393 1392 1392 1391 1391 1391 1390 1389 1387 1387 1386 1385 1385 1384 1384 1383 1383 1382 1382 1382 1381 1381 1380 1379 1378 1377 1377 1377 1377 1376 1376 1376 1376 1376 1375 1374 1373 1373 1373 1373 1373 1373 1373 1374 1373 1374 1374 1374 1375 1376 1376 1376 1376 1376 1376 1376 1376 1376 1376 1377 1377 1378 1377 1377 1376 1374 1375 1376 1376 1376 1378 1380 1380 1379 1379 1378 1378 1379 1379 1378 1378
1395 1393 1392 1391 1391 1390 1390 1389 1388 1387 1386 1384 1383 1383 1382 1381 1381 1381 1380 1380 1379 1379 1379 1378 1377 1377 1376 1375 1374 1373 1372 1373 1373 1373 1372 1373 1372 1372 1371 1370 1369 1369 1369 1369 1369 1369 1369 1369 1369 1370 1370 1370 1371 1372 1373 1373 1372 1372 1372 1371 1372 1371 1371 1372 1373 1373 1372 1372 1371 1370 1371 1372 1372 1372 1373 1375 1374 1374 1375 1375 1375 1376 1376 1374 1373
1393 1391 1390 1389 1388 1388 1387 1386 1384 1383 1382 1380 1380 1379 1378 1378 1378 1378 1377 1377 1376 1376 1375 1374 1374 1373 1372 1371 1370 1369 1368 1369 1369 1369 1369 1369 1369 1368 1367 1366 1365 1364 1364 1364 1364 1364 1365 1365 1365 1365 1366 1366 1367 1368 1369 1369 1368 1367 1367 1367 1367 1366 1366 1367 1368 1368 1368 1368 1367 1367 1368 1368 1369 1369 1370 1371 1371 1372 1373 1372 1372 1373 1373 1372 1370
1390 1389 1387 1386 1385 1384 1383 1382 1381 1379 1378 1376 1375 1375 1374 1374 1375 1375 1374 1374 1373 1372 1371 1370 1370 1369 1368 1367 1367 1366 1365 1365 1365 1365 1365 1365 1365 1364 1363 1362 1361 1361 1360 1360 1361 1361 1361 1361 1362 1362 1361 1362 1363 1364 1365 1365 1364 1364 1363 1363 1363 1362 1362 1363 1363 1363 1364 1364 1363 1364 1364 1365 1365 1366 1366 1367 1369 1370 1371 1369 1370 1371 1370 1369 1367
1388 1386 1384 1383 1381 1380 1380 1378 1377 1375 1373 1372 1371 1371 1371 1372 1372 1371 1371 1370 1369 1368 1367 1367 1366 1365 1364 1364 1363 1363 1362 1361 1361 1361 1361 1361 1361 1360 1360 1358 1358 1357 1357 1357 1357 1357 1357 1357 1358 1358 1358 1359 1360 1360 1361 1362 1361 1360 1360 1360 1359 1358 1359 1360 1360 1360 1360 1360 1359 1360 1360 1360 1361 1361 1361 1362 1363 1365 1365 1365 1366 1367 1366 1365 1364
1385 1383 1380 1379 1378 1377 1376 1374 1372 1371 1369 1368 1368 1368 1368 1368 1368 1367 1367 1366 1365 1365 1364 1363 1362 1361 1361 1360 1359 1359 1358 1358 1358 1357 1357 1357 1357 1357 1357 1356 1355 1354 1354 1354 1353 1353 1354 1354 1354 1355 1355 1356 1356 1357 1358 1359 1358 1358 1358 1357 1355 1355 1356 1357 1356 1356 1356 1355 1355 1356 1356 1356 1357 1357 1357 1357 1358 1359 1360 1361 1361 1362 1362 1361 1361
1381 1378 1376 1375 1375 1374 1372 1370 1368 1367 1366 1366 1365 1365 1365 1365 1364 1363 1363 1362 1361 1361 1360 1359 1358 1357 1357 1356 1356 1355 1355 1354 1354 1354 1353 1353 1353 1354 1353 1352 1352 1351 1351 1351 1350 1350 1350 1350 1351 1352 1352 1352 1353 1354 1354 1355 1355 1355 1355 1354 1353 1354 1354 1354 1353 1353 1352 1352 1352 1352 1352 1353 1353 1353 1353 1354 1354 1355 1356 1356 1357 1358 1358 1357 1356
1377 1375 1373 1373 1372 1371 1369 1367 1366 1365 1364 1363 1362 1362 1362 1361 1361 1360 1359 1358 1357 1357 1356 1355 1354 1353 1352 1352 1351 1351 1351 1350 1350 1349 1349 1349 1349 1350 1349 1349 1349 1348 1348 1347 1347 1346 1347 1347 1347 1348 1349 1349 1350 1350 1351 1351 1352 1352 1351 1351 1351 1352 1352 1351 1350 1350 1350 1349 1349 1349 1349 1349 1349 1350 1350 1350 1351 1352 1352 1352 1353 1353 1353 1353 1353
1374 1372 1372 1371 1369 1368 1366 1364 1363 1362 1361 1360 1359 1359 1358 1358 1357 1356 1355 1354 1353 1352 1352 1351 1350 1349 1348 1348 1347 1347 1347 1347 1346 1346 1346 1345 1346 1346 1346 1346 1346 1346 1345 1344 1344 1344 1344 1344 1344 1345 1345 1346 1347 1347 1348 1348 1348 1348 1348 1349 1349 1349 1349 1348 1348 1347 1347 1347 1347 1346 1345 1346 1346 1346 1347 1347 1348 1349 1349 1349 1349 1350 1350 1349 1350
1372 1370 1369 1368 1366 1364 1363 1361 1360 1359 1358 1357 1356 1355 1354 1354 1353 1352 1352 1351 1350 1349 1348 1347 1346 1345 1345 1344 1344 1344 1344 1344 1344 1344 1343 1343 1342 1342 1342 1342 1342 1342 1342 1341 1341 1341 1341 1341 1341 1342 1342 1343 1343 1344 1344 1345 1345 1345 1345 1345 1345 1345 1345 1344 1343 1343 1343 1344 1343 1343 1342 1343 1343 1343 1344 1345 1346 1346 1346 1346 1346 1346 1347 1347 1347
1368 1367 1366 1364 1362 1361 1359 1358 1356 1355 1355 1354 1353 1352 1351 1350 1349 1349 1348 1347 1346 1345 1345 1344 1344 1343 1343 1342 1342 1342 1342 1342 1341 1341 1340 1340 1339 1339 1338 1338 1338 1338 1338 1337 1337 1338 1338 1338 1339 1339 1339 1340 1340 1340 1340 1340 1340 1340 1341 1341 1341 1341 1340 1340 1340 1340 1340 1340 1340 1340 1340 1340 1341 1341 1342 1342 1343 1343 1343 1343 1344 1344 1344 1344 1344
1365 1364 1363 1361 1359 1357 1355 1354 1353 1352 1351 1351 1350 1349 1348 1347 1346 1345 1345 1344 1344 1343 1343 1342 1342 1341 1341 1340 1340 1340 1339 1339 1338 1338 1337 1337 1336 1336 1336 1335 1335 1335 1335 1334 1335 1335 1335 1335 1335 1335 1335 1335 1336 1336 1336 1336 1336 1336 1337 1337 1337 1337 1337 1337 1337 1337 1337 1337 1337 1337 1337 1338 1338 1338 1339 1339 1339 1340 1341 1341 1341 1341 1341 1341 1341
1363 1361 1360 1358 1356 1354 1352 1351 1350 1349 1348 1348 1347 1346 1345 1344 1343 1343 1342 1342 1341 1341 1341 1340 1340 1339 1338 1338 1337 1336 1336 1336 1335 1335 1335 1334 1334 1334 1333 1333 1333 1332 1332 1332 1332 1332 1332 1333 1332 1332 1332 1332 1332 1332 1332 1332 1333 1333 1333 1333 1333 1333 1334 1334 1334 1334 1334 1334 1334 1334 1334 1335 1335 1335 1335 1335 1336 1337 1337 1338 1337 1337 1338 1338 1337
1361 1359 1357 1355 1352 1351 1350 1348 1348 1347 1346 1345 1344 1343 1343 1342 1341 1341 1340 1340 1339 1339 1338 1338 1337 1337 1336 1335 1334 1333 1332 1332 1332 1332 1332 1332 1332 1331 1331 1330 1330 1329 1329 1329 1329 1329 1329 1329 1329 1328 1328 1328 1328 1328 1329 1329 1329 1329 1329 1330 1330 1330 1331 1331 1331 1331 1331 1331 1331 1331 1332 1332 1332 1332 1332 1332 1332 1333 1334 1334 1333 1333 1334 1334 1333
1358 1356 1354 1352 1350 1348 1347 1346 1345 1344 1343 1342 1342 1341 1340 1340 1339 1339 1338 1338 1337 1337 1336 1336 1335 1334 1333 1332 1331 1330 1328 1328 1328 1329 1329 1329 1329 1329 1328 1328 1327 1326 1326 1327 1327 1326 1326 1326 1326 1325 1325 1325 1325 1325 1325 1326 1326 1326 1326 1326 1327 1327 1328 1328 1329 1329 1329 1329 1328 1328 1328 1328 1328 1328 1328 1328 1328 1329 1330 1330 1330 1329 1330 1330 1328
1355 1353 1351 1349 1347 1346 1345 1344 1343 1342 1341 1340 1339 1338 1338 1337 1337 1336 1336 1336 1335 1335 1334 1334 1333 1332 1330 1329 1328 1327 1325 1325 1325 1325 1325 1326 1326 1325 1325 1324 1324 1324 1324 1324 1324 1324 1323 1322 1322 1322 1322 1322 1322 1322 1323 1323 1323 1323 1323 1324 1324 1325 1325 1326 1326 1326 1326 1326 1325 1325 1325 1324 1324 1324 1324 1324 1324 1325 1326 1326 1326 1326 1326 1325 1324
1352 1350 1348 1346 1345 1344 1342 1341 1340 1339 1338 1337 1337 1336 1335 1335 1335 1335 1334 1334 1333 1333 1332 1331 1331 1330 1328 1326 1325 1324 1323 1322 1321 1321 1321 1321 1322 1321 1321 1321 1320 1320 1321 1321 1320 1319 1319 1318 1318 1319 1320 1320 1320 1320 1320 1320 1321 1321 1321 1322 1322 1323 1323 1323 1324 1324 1324 1323 1322 1322 1321 1321 1320 1320 1320 1320 1320 1321 1321 1321 1321 1321 1321 1321 1320
1350 1347 1346 1344 1342 1341 1340 1339 1338 1337 1336 1335 1334 1333 1333 1332 1332 1332 1332 1332 1331 1330 1329 1328 1327 1326 1325 1323 1322 1320 1319 1318 1318 1317 1317 1317 1317 1317 1316 1316 1316 1316 1316 1316 1316 1315 1315 1315 1315 1315 1316 1316 1316 1317 1317 1317 1318 1319 1319 1320 1320 1320 1321 1321 1321 1321 1321 1320 1319 1318 1318 1317 1316 1316 1316 1316 1316 1316 1316 1317 1317 1317 1316 1316 1315
1347 1345 1343 1342 1340 1339 1338 1336 1335 1334 1333 1332 1332 1331 1330 1330 1329 1329 1329 1328 1328 1327 1326 1325 1323 1322 1320 1319 1318 1316 1315 1315 1314 1313 1312 1312 1312 1312 1311 1311 1311 1312 1312 1313 1312 1311 1312 1312 1312 1312 1313 1313 1313 1314 1314 1315 1315 1316 1317 1317 1317 1318 1318 1318 1318 1318 1317 1317 1316 1315 1314 1313 1313 1312 1312 1312 1312 1312 1312 1312 1312 1312 1312 1311 1310
1345 1343 1342 1340 1338 1337 1335 1334 1333 1332 1331 1330 1329 1329 1328 1327 1327 1326 1325 1324 1323 1322 1322 1321 1319 1317 1316 1314 1313 1312 1311 1310 1310 1309 1308 1308 1307 1307 1307 1307 1307 1308 1309 1309 1308 1308 1308 1309 1309 1309 1310 1310 1311 1312 1312 1312 1313 1313 1313 1314 1315 1315 1316 1316 1315 1315 1314 1313 1312 1312 1311 1310 1310 1309 1308 1308 1308 1308 1308 1308 1308 1308 1307 1306 1305
1343 1341 1339 1338 1336 1334 1333 1332 1330 1329 1329 1328 1327 1326 1326 1325 1324 1324 1322 1321 1320 1318 1317 1316 1315 1314 1312 1311 1310 1309 1308 1307 1306 1305 1304 1304 1303 1303 1303 1303 1303 1304 1305 1305 1305 1305 1306 1306 1306 1307 1308 1308 1309 1309 1309 1310 1310 1310 1311 1311 1312 1313 1313 1313 1313 1312 1311 1310 1310 1309 1308 1307 1307 1306 1305 1305 1304 1304 1304 1304 1304 1303 1302 1301 1300
1340 1338 1336 1334 1333 1332 1330 1329 1328 1327 1326 1325 1324 1324 1323 1323 1322 1321 1320 1318 1317 1315 1314 1312 1311 1310 1309 1308 1307 1306 1305 1304 1303 1302 1301 1301 1301 1301 1300 1300 1300 1300 1301 1302 1302 1303 1304 1304 1304 1305 1305 1306 1306 1306 1306 1307 1307 1307 1308 1309 1309 1310 1310 1310 1310 1309 1309 1308 1307 1306 1305 1305 1304 1303 1302 1301 1301 1301 1301 1301 1300 1299 1298 1297 1295
1337 1335 1333 1331 1330 1329 1328 1327 1326 1325 1324 1323 1322 1322 1321 1320 1319 1318 1317 1315 1314 1312 1311 1309 1308 1307 1306 1305 1305 1304 1302 1301 1300 1299 1298 1298 1298 1298 1298 1298 1298 1298 1299 1299 1300 1300 1301 1301 1301 1301 1302 1302 1302 1303 1303 1303 1304 1305 1306 1306 1307 1308 1308 1308 1307 1307 1306 1306 1305 1304 1303 1302 1301 1300 1299 1299 1299 1298 1298 1298 1297 1295 1294 1292 1291
1335 1333 1331 1329 1328 1327 1325 1324 1324 1322 1321 1321 1320 1319 1318 1317 1316 1315 1314 1312 1311 1309 1308 1307 1306 1304 1304 1303 1302 1301 1300 1299 1297 1296 1296 1295 1295 1295 1295 1295 1296 1296 1297 1297 1298 1298 1298 1298 1298 1298 1299 1299 1299 1300 1300 1301 1302 1303 1303 1304 1304 1305 1305 1305 1305 1304 1304 1303 1303 1302 1301 1300 1299 1298 1297 1297 1296 1296 1296 1295 1293 1292 1290 1288 1287
1332 1331 1329 1328 1326 1324 1323 1322 1321 1320 1319 1318 1317 1316 1315 1314 1313 1312 1311 1309 1308 1307 1305 1304 1303 1302 1302 1301 1300 1299 1297 1296 1295 1294 1293 1293 1293 1293 1293 1293 1294 1294 1294 1295 1295 1295 1295 1295 1296 1296 1296 1297 1297 1297 1298 1299 1300 1301 1301 1302 1302 1302 1302 1302 1302 1302 1302 1301 1301 1300 1299 1298 1297 1296 1295 1295 1295 1294 1293 1292 1291 1289 1287 1286 1284
1329 1328 1327 1325 1324 1322 1321 1320 1319 1318 1317 1316 1315 1314 1312 1311 1310 1309 1307 1306 1305 1304 1303 1302 1301 1300 1300 1299 1298 1297 1296 1294 1293 1292 1291 1291 1291 1291 1291 1291 1292 1292 1292 1292 1293 1293 1293 1293 1293 1294 1294 1294 1295 1295 1296 1297 1297 1298 1299 1299 1300 1300 1300 1299 1299 1300 1299 1299 1298 1298 1297 1296 1295 1294 1294 1294 1293 1292 1291 1290 1289 1288 1286 1284 1283
1326 1324 1323 1322 1321 1320 1318 1317 1316 1315 1314 1313 1312 1311 1310 1308 1307 1306 1305 1304 1302 1301 1300 1299 1299 1298 1298 1297 1296 1296 1294 1293 1291 1291 1290 1289 1289 1289 1289 1290 1290 1290 1290 1291 1291 1291 1291 1291 1291 1292 1292 1292 1293 1293 1294 1294 1295 1296 1296 1297 1297 1297 1297 1297 1297 1297 1297 1297 1297 1296 1295 1294 1294 1293 1293 1292 1292 1291 1290 1289 1288 1287 1286 1284 1283
1323 1321 1319 1318 1317 1316 1315 1314 1313 1312 1312 1310 1309 1308 1307 1306 1305 1304 1302 1301 1300 1299 1298 1297 1297 1296 1295 1295 1294 1294 1293 1291 1290 1289 1288 1288 1288 1288 1288 1288 1288 1288 1288 1288 1288 1288 1288 1288 1289 1289 1290 1290 1290 1291 1292 1292 1293 1293 1294 1294 1295 1295 1295 1295 1295 1295 1295 1295 1295 1294 1294 1293 1293 1292 1292 1291 1291 1290 1290 1289 1288 1288 1286 1285 1284
1320 1318 1316 1315 1314 1313 1313 1311 1310 1310 1309 1307 1306 1305 1304 1303 1302 1301 1300 1299 1298 1297 1296 1295 1294 1294 1293 1293 1292 1291 1290 1289 1288 1288 1287 1287 1286 1286 1286 1286 1286 1286 1286 1286 1286 1286 1286 1286 1287 1287 1287 1288 1288 1288 1289 1290 1290 1291 1292 1292 1292 1293 1293 1293 1293 1293 1293 1293 1293 1293 1292 1292 1292 1291 1291 1291 1291 1291 1290 1289 1289 1289 1288 1286 1286
1317 1316 1314 1312 1311 1311 1310 1308 1308 1307 1306 1304 1303 1302 1301 1301 1300 1298 1297 1296 1296 1295 1294 1293 1292 1292 1291 1291 1290 1289 1288 1287 1287 1286 1285 1285 1284 1284 1284 1284 1284 1284 1284 1284 1284 1284 1284 1284 1285 1285 1285 1286 1286 1286 1287 1287 1288 1289 1290 1290 1290 1291 1291 1291 1291 1291 1291 1291 1291 1291 1291 1291 1291 1291 1290 1290 1291 1291 1290 1290 1290 1289 1289 1288 1288
1315 1313 1311 1310 1309 1307 1306 1305 1305 1304 1303 1302 1301 1300 1299 1298 1297 1296 1295 1295 1294 1293 1292 1291 1291 1290 1289 1289 1288 1287 1287 1286 1285 1284 1284 1283 1283 1282 1282 1282 1282 1282 1282 1282 1282 1282 1282 1283 1283 1283 1283 1284 1284 1284 1285 1285 1286 1287 1287 1288 1288 1288 1289 1289 1289 1289 1289 1290 1290 1290 1290 1289 1290 1290 1290 1290 1290 1291 1291 1291 1290 1290 1290 1289 1289
1312 1310 1309 1307 1306 1305 1304 1303 1302 1301 1300 1299 1298 1297 1296 1296 1295 1294 1294 1293 1292 1291 1290 1290 1289 1288 1288 1287 1286 1286 1285 1284 1283 1283 1282 1281 1281 1281 1281 1281 1281 1280 1280 1281 1281 1281 1281 1281 1281 1281 1282 1282 1282 1283 1283 1284 1284 1285 1285 1286 1286 1286 1287 1287 1287 1287 1287 1288 1288 1288 1288 1288 1288 1289 1289 1289 1290 1290 1291 1290 1290 1290 1290 1290 1290
1309 1308 1307 1305 1304 1302 1301 1300 1299 1298 1297 1296 1296 1295 1294 1293 1292 1292 1291 1291 1290 1289 1288 1288 1287 1287 1286 1286 1285 1284 1284 1283 1282 1281 1281 1280 1280 1279 1279 1279 1279 1279 1279 1279 1279 1279 1279 1280 1280 1280 1280 1280 1281 1281 1282 1282 1282 1283 1283 1284 1284 1284 1285 1285 1285 1285 1286 1286 1287 1287 1287 1287 1287 1288 1288 1288 1289 1289 1290 1290 1290 1290 1290 1290 1290
1307 1306 1304 1303 1301 1300 1298 1297 1296 1295 1294 1294 1293 1292 1292 1291 1290 1290 1289 1288 1288 1287 1287 1286 1286 1285 1285 1284 1283 1283 1282 1282 1281 1280 1279 1279 1278 1278 1278 1278 1278 1278 1278 1278 1278 1278 1278 1278 1279 1279 1279 1279 1280 1280 1280 1280 1281 1281 1282 1282 1283 1283 1283 1283 1284 1284 1284 1285 1285 1286 1286 1286 1286 1286 1287 1287 1288 1289 1289 1289 1289 1290 1290 1290 1290
1305 1304 1302 1300 1299 1297 1296 1295 1294 1293 1292 1291 1291 1290 1289 1289 1288 1287 1287 1286 1286 1285 1285 1284 1284 1283 1283 1282 1282 1281 1281 1280 1280 1279 1278 1278 1277 1277 1276 1277 1277 1277 1277 1277 1277 1277 1277 1277 1278 1278 1278 1278 1278 1279 1279 1279 1280 1280 1280 1281 1281 1281 1282 1282 1282 1283 1283 1284 1284 1284 1284 1284 1285 1285 1286 1287 1287 1288 1289 1289 1289 1289 1290 1290 1289
1303 1301 1300 1298 1297 1295 1294 1293 1292 1291 1290 1289 1288 1287 1287 1286 1285 1285 1285 1284 1284 1284 1283 1283 1282 1282 1281 1281 1280 1280 1279 1279 1278 1278 1277 1277 1276 1275 1275 1276 1276 1276 1276 1276 1276 1276 1276 1277 1277 1277 1277 1277 1278 1278 1278 1278 1279 1279 1279 1280 1280 1280 1281 1281 1281 1282 1282 1282 1283 1283 1283 1283 1284 1284 1285 1286 1287 1287 1288 1288 1289 1289 1289 1289 1289
1301 1299 1298 1296 1295 1293 1292 1291 1290 1289 1288 1287 1286 1285 1284 1284 1283 1283 1282 1282 1282 1281 1281 1281 1280 1280 1279 1279 1279 1278 1278 1278 1277 1277 1276 1276 1275 1274 1274 1275 1275 1275 1275 1275 1275 1276 1276 1276 1276 1276 1276 1277 1277 1277 1277 1278 1278 1278 1279 1279 1279 1280 1280 1280 1280 1281 1281 1281 1282 1282 1282 1282 1283 1284 1285 1285 1286 1287 1287 1288 1288 1289 1289 1289 1289